Location: Gajan
(43.0218°N, 1.1244°E)
Time: 16:40:16
(UTC+00:00)

Cosmos 1869 - Pass Details

Date: 22 April 2021
Orbit: 519 x 563 km, 82.5° (Epoch: 12 May)

Event Time Altitude Azimuth Distance (km) Brightness Sun altitude
Exits shadow 20:47:52 51° 86° (E) 689 3.5 -20.1°
Drops below altitude 10° 20:51:34 10° 18° (NNE) 1,800 6.2 -20.6°
Sets 20:53:45 0° 14° (NNE) 2,688 7.2 -20.9°
